Weather History for KIKW - November, 2012

Change the Weather History Date:

Tuesday, November 20, 2012

  Actual Average (KMBS) Record (KMBS)
Temperature  
Mean Temperature 40 °F 37 °F  
Max Temperature 51 °F 44 °F - ()
Min Temperature 30 °F 30 °F - ()
Degree Days  
Heating Degree Days 24    
Month to date heating degree days  
Since 1 July heating degree days  
Cooling Degree Days 0    
Month to date cooling degree days  
Year to date cooling degree days  
Moisture  
Dew Point 36 °F    
Average Humidity 82    
Maximum Humidity 100    
Minimum Humidity 59    
Precipitation  
Precipitation 0.00 in 0.08 in - ()
Month to date precipitation 1.87  
Year to date precipitation 28.85  
Snow  
Snow 0.00 in - - ()
Month to date snowfall  
Since 1 July snowfall  
Since 1 September snowfall  
Snow Depth -    
Sea Level Pressure  
Sea Level Pressure 30.12 in    
Wind  
Wind Speed 0 mph (East)    
Max Wind Speed 5 mph    
Max Gust Speed -    
Visibility 10 miles    
Events      
T = Trace of Precipitation, MM = Missing Value Source: NWS Daily Summary

Daily Weather History Graph

Daily Weather History Graph

Search for Another Location

Airport or City:

Trip Planner

Search our weather history database for the weather conditions in past years. The results will help you decide how hot, cold, wet, or windy it might be!

Date:

Astronomy

Nov. 20, 2012 Rise Set
Actual Time 7:38 AM EST 5:07 PM EST
Civil Twilight 7:06 AM EST 5:38 PM EST
Nautical Twilight 6:31 AM EST 6:13 PM EST
Astronomical Twilight 5:57 AM EST 6:47 PM EST
Moon 1:05 PM EST (11/20) No Moon Set
Length of Visible Light 10h 31m
Length of Day
9h 28m
Waxing Crescent, 51% of the Moon is Illuminated
Nov 20
Waxing Crescent
Nov 28
Full
Dec 6
Last Quarter
Dec 13
New
Dec 20
First Quarter

Hourly Weather History & Observations

Time (EST) Temp. Windchill Dew Point Humidity Pressure Visibility Wind Dir Wind Speed Gust Speed Precip Events Conditions
12:14 AM 42.3 °F - 34.0 °F 72% 30.16 in 10.0 mi Calm Calm - N/A   Clear
12:35 AM 40.8 °F - 33.1 °F 74% 30.15 in 10.0 mi Calm Calm - N/A   Clear
12:54 AM 38.1 °F - 32.7 °F 81% 30.15 in 10.0 mi Calm Calm - N/A   Clear
1:14 AM 41.0 °F - 33.3 °F 74% 30.14 in 10.0 mi Calm Calm - N/A   Clear
1:34 AM 41.0 °F - 33.4 °F 74% 30.14 in 10.0 mi Calm Calm - N/A   Clear
1:54 AM 35.2 °F - 32.5 °F 90% 30.14 in 10.0 mi Calm Calm - N/A   Clear
2:14 AM 32.7 °F - 31.3 °F 94% 30.13 in 10.0 mi Calm Calm - N/A   Clear
2:34 AM 35.4 °F - 32.5 °F 89% 30.13 in 10.0 mi Calm Calm - N/A   Clear
2:54 AM 32.7 °F - 31.5 °F 95% 30.13 in 10.0 mi Calm Calm - N/A   Clear
3:14 AM 32.0 °F - 31.3 °F 97% 30.13 in 10.0 mi Calm Calm - N/A   Clear
3:34 AM 31.8 °F - 30.9 °F 96% 30.13 in 10.0 mi Calm Calm - N/A   Clear
3:54 AM 32.4 °F - 31.8 °F 98% 30.13 in 10.0 mi Calm Calm - N/A   Clear
4:14 AM 32.4 °F - 32.0 °F 99% 30.12 in 10.0 mi Calm Calm - N/A   Clear
4:34 AM 32.0 °F - 31.1 °F 96% 30.12 in 10.0 mi Calm Calm - N/A   Clear
4:54 AM 32.0 °F - 31.5 °F 98% 30.12 in 10.0 mi Calm Calm - N/A   Clear
5:14 AM 30.9 °F - 30.6 °F 99% 30.12 in 7.0 mi Calm Calm - N/A   Clear
5:34 AM 30.2 °F - 30.0 °F 99% 30.12 in 5.0 mi Calm Calm - N/A   Clear
5:54 AM 30.0 °F - 30.0 °F 100% 30.12 in 5.0 mi Calm Calm - N/A   Scattered Clouds
6:15 AM 30.2 °F - 30.2 °F 100% 30.12 in 7.0 mi Calm Calm - N/A   Scattered Clouds
6:34 AM 30.6 °F - 30.2 °F 99% 30.11 in 10.0 mi Calm Calm - N/A   Scattered Clouds
6:54 AM 30.7 °F - 30.2 °F 98% 30.11 in 10.0 mi Calm Calm - N/A   Scattered Clouds
7:15 AM 31.6 °F - 31.3 °F 99% 30.12 in 10.0 mi Calm Calm - N/A   Mostly Cloudy
7:34 AM 32.4 °F - 32.0 °F 99% 30.12 in 10.0 mi Calm Calm - N/A   Overcast
7:54 AM 32.4 °F - 32.0 °F 99% 30.12 in 10.0 mi Calm Calm - N/A   Overcast
8:15 AM 33.1 °F - 32.4 °F 97% 30.12 in 10.0 mi Calm Calm - N/A   Overcast
8:28 AM 34.0 °F - 33.3 °F 97% 30.12 in 10.0 mi Calm Calm - N/A   Overcast
8:54 AM 35.6 °F - 34.3 °F 95% 30.13 in 10.0 mi Calm Calm - N/A   Overcast
9:15 AM 36.7 °F - 34.9 °F 93% 30.12 in 10.0 mi Calm Calm - N/A   Overcast
9:34 AM 37.4 °F - 35.4 °F 93% 30.12 in 10.0 mi Calm Calm - N/A   Overcast
9:54 AM 39.0 °F - 36.0 °F 89% 30.12 in 10.0 mi Calm Calm - N/A   Overcast
10:14 AM 41.9 °F - 36.1 °F 80% 30.12 in 10.0 mi Calm Calm - N/A   Overcast
10:34 AM 42.1 °F 39.2 °F 35.4 °F 77% 30.13 in 10.0 mi West 4.6 mph - N/A   Overcast
10:55 AM 42.6 °F 40.9 °F 35.6 °F 76% 30.13 in 10.0 mi West 3.5 mph - N/A   Overcast
11:14 AM 43.3 °F - 35.6 °F 74% 30.13 in 10.0 mi Calm Calm - N/A   Overcast
11:34 AM 43.3 °F - 35.6 °F 74% 30.12 in 10.0 mi Calm Calm - N/A   Overcast
11:55 AM 44.1 °F - 36.1 °F 74% 30.11 in 10.0 mi Calm Calm - N/A   Overcast
12:14 PM 45.3 °F - 36.1 °F 70% 30.11 in 10.0 mi Calm Calm - N/A   Overcast
12:34 PM 46.4 °F - 36.1 °F 67% 30.09 in 10.0 mi Calm Calm - N/A   Overcast
12:55 PM 48.2 °F - 36.7 °F 64% 30.09 in 10.0 mi Calm Calm - N/A   Overcast
1:14 PM 49.1 °F - 37.6 °F 64% 30.08 in 10.0 mi Calm Calm - N/A   Overcast
1:35 PM 50.5 °F - 38.1 °F 62% 30.08 in 10.0 mi Calm Calm - N/A   Overcast
2:14 PM 51.3 °F - 37.6 °F 60% 30.07 in 10.0 mi Calm Calm - N/A   Overcast
2:35 PM 51.8 °F - 37.8 °F 59% 30.08 in 10.0 mi Calm Calm - N/A   Overcast
2:54 PM 51.8 °F - 37.8 °F 59% 30.08 in 10.0 mi Calm Calm - N/A   Overcast
3:14 PM 51.8 °F - 38.1 °F 60% 30.08 in 10.0 mi Calm Calm - N/A   Overcast
3:35 PM 51.8 °F - 38.1 °F 60% 30.09 in 10.0 mi Calm Calm - N/A   Overcast
3:54 PM 50.9 °F - 39.7 °F 66% 30.09 in 10.0 mi Calm Calm - N/A   Overcast
4:14 PM 49.6 °F - 39.7 °F 69% 30.10 in 10.0 mi Calm Calm - N/A   Overcast
4:35 PM 49.3 °F - 39.6 °F 69% 30.11 in 10.0 mi Calm Calm - N/A   Overcast
4:54 PM 49.1 °F - 39.4 °F 69% 30.11 in 10.0 mi Calm Calm - N/A   Overcast
5:15 PM 48.6 °F - 39.6 °F 71% 30.11 in 10.0 mi Calm Calm - N/A   Overcast
5:35 PM 47.5 °F - 39.4 °F 73% 30.11 in 10.0 mi East 3.5 mph - N/A   Overcast
5:43 PM 47.5 °F - 39.4 °F 73% 30.11 in 10.0 mi East 3.5 mph - N/A   Overcast
6:14 PM 47.7 °F - 39.7 °F 74% 30.12 in 10.0 mi Calm Calm - N/A   Overcast
6:35 PM 47.3 °F - 39.7 °F 75% 30.12 in 10.0 mi Calm Calm - N/A   Overcast
6:54 PM 46.6 °F - 39.6 °F 77% 30.13 in 10.0 mi ENE 3.5 mph - N/A   Overcast
7:15 PM 46.6 °F - 39.4 °F 76% 30.14 in 10.0 mi Calm Calm - N/A   Overcast
7:34 PM 46.4 °F - 39.7 °F 78% 30.14 in 10.0 mi Calm Calm - N/A   Overcast
7:55 PM 46.2 °F - 39.7 °F 78% 30.13 in 10.0 mi Calm Calm - N/A   Overcast
8:14 PM 45.9 °F - 39.6 °F 79% 30.13 in 10.0 mi Calm Calm - N/A   Overcast
8:34 PM 45.5 °F - 40.1 °F 81% 30.14 in 10.0 mi Calm Calm - N/A   Overcast
8:55 PM 45.1 °F - 40.1 °F 82% 30.14 in 10.0 mi Calm Calm - N/A   Overcast
9:14 PM 45.7 °F - 39.4 °F 79% 30.14 in 10.0 mi Calm Calm - N/A   Overcast
9:35 PM 45.5 °F - 40.1 °F 81% 30.14 in 10.0 mi Calm Calm - N/A   Overcast
9:54 PM 44.8 °F - 39.9 °F 83% 30.15 in 10.0 mi Calm Calm - N/A   Overcast
10:15 PM 45.3 °F - 39.4 °F 80% 30.14 in 10.0 mi Calm Calm - N/A   Overcast
10:35 PM 44.8 °F - 40.1 °F 84% 30.14 in 10.0 mi Calm Calm - N/A   Overcast
10:54 PM 44.6 °F - 40.1 °F 84% 30.15 in 10.0 mi Calm Calm - N/A   Overcast
11:15 PM 44.6 °F - 40.1 °F 84% 30.15 in 10.0 mi Calm Calm - N/A   Overcast
11:35 PM 44.6 °F - 40.3 °F 85% 30.15 in 10.0 mi Calm Calm - N/A   Overcast
11:54 PM 44.6 °F - 40.3 °F 85% 30.15 in 10.0 mi Calm Calm - N/A   Overcast